{"data":{"norad_id":64841,"intl_designator":"2025-135BU","name":"LEMUR-2-KARENDARRELL","alt_names":[],"object_type":"PAYLOAD","status":"ACTIVE","operator":null,"country":"US","launch_date":"2025-06-23","launch_site_code":"AFWTR","launch_vehicle":null,"mission":null,"orbit_class":"UNKNOWN","rcs_meters":null,"size_class":null,"mass_kg":null,"dimensions":null,"purposes":["earth_obs"],"wikipedia_slug":null,"has_3d_model":false,"image_url":null,"decayed_at":null,"tle_current":{"epoch":"2026-09-19T01:33:25.151616Z","epoch_age_seconds":138378,"freshness":"FRESH","line1":"1 64841U 25135BU  26262.06487444  .00005533  00000+0  43465-3 0  9994","line2":"2 64841  97.7863  18.2897 0009959 252.1397 107.8741 15.01274735 68097","mean_motion":15.01274735,"eccentricity":0.0009959,"inclination_deg":97.7863,"raan_deg":18.2897,"arg_perigee_deg":252.1397,"mean_anomaly_deg":107.8741,"bstar":0.00043465,"rev_number":6809,"period_min":95.918486232302,"perigee_km":556.05178621221,"apogee_km":569.87707203875,"semimajor_km":6941.1014291255,"source":"CELESTRAK","updated_at":"2026-09-20T09:00:34.878191Z"}}}